Theta_e
337 338 337 333 330 329 332 337 339 338 335 334 333 332 332 331 329 331 332 332 331 330 329 329 330 330 332 330 325 325 329 330 332 333 335 336 337 336 334 334 332 330 328 325 324 323 324 323 324 325 324 322 320 318 318 318 317 316 319 317 317 317 317 317 317 316 317 316 316 316 316 316 315 315 315 314 314 314 314 314 314 314 314 314 314
338 339 337 335 330 328 330 334 339 339 336 334 333 333 333 331 330 333 334 333 332 330 330 329 330 331 332 330 325 326 331 331 332 333 333 334 334 332 330 330 329 327 325 323 323 323 323 323 324 324 323 323 321 318 317 317 317 315 316 315 314 316 316 317 317 316 317 316 316 315 316 316 315 315 315 314 314 314 314 314 314 314 314 314 314
339 339 337 336 331 328 328 331 337 339 336 334 334 334 334 332 330 333 334 333 332 330 330 329 331 331 332 332 327 327 331 331 329 330 331 332 330 327 327 328 327 326 325 324 324 323 324 323 323 323 322 322 321 319 316 316 316 314 313 313 314 316 315 317 316 317 317 317 316 315 316 315 315 315 314 314 314 314 314 314 314 314 314 314 314
339 339 338 336 331 328 326 328 333 339 338 334 335 335 335 333 330 333 334 333 332 330 330 330 330 331 332 333 331 327 328 330 329 328 330 329 327 326 328 329 329 328 327 327 326 325 324 322 321 321 320 320 319 317 316 316 314 312 313 314 316 316 316 316 316 317 316 316 316 316 316 315 315 315 314 314 314 314 314 314 314 314 314 314 313
340 340 338 336 332 328 326 326 330 337 339 336 336 335 335 334 331 332 334 333 333 331 330 330 330 331 331 332 333 330 327 327 329 329 329 328 328 330 331 330 331 329 328 328 328 328 325 320 318 318 317 317 316 316 315 314 312 312 315 316 316 316 316 316 316 317 316 316 316 316 315 315 315 315 315 314 314 314 314 314 314 314 314 314 313
340 339 338 336 332 328 326 325 327 334 339 338 337 336 336 336 332 331 334 333 332 332 330 330 330 330 331 331 332 333 329 327 329 331 331 331 331 332 332 331 332 330 329 330 330 329 325 319 316 316 315 315 315 314 314 312 313 315 317 317 316 315 316 315 316 316 316 316 316 315 315 315 315 315 314 314 314 314 314 313 314 314 314 314 313
339 339 338 336 332 329 327 325 326 331 337 339 338 337 336 337 334 331 332 333 333 332 331 330 330 331 331 331 331 333 333 330 331 332 333 333 333 333 333 332 332 331 330 329 331 330 325 317 315 315 314 315 314 314 314 313 316 317 318 317 316 315 315 315 315 315 315 315 315 315 315 315 315 315 315 314 315 314 313 313 313 314 314 314 313
338 338 337 336 331 328 327 326 326 329 335 338 339 338 337 337 336 332 331 333 333 332 332 331 330 330 330 331 331 332 333 333 332 333 333 333 333 333 333 333 331 331 331 330 331 331 326 316 314 313 315 321 319 316 315 316 318 318 317 317 317 316 314 315 315 315 315 315 315 315 315 315 315 315 315 315 315 314 314 313 313 314 314 314 313
338 338 336 335 331 328 327 327 327 329 331 335 338 339 338 337 338 334 331 332 333 333 332 332 331 330 329 330 331 332 332 333 333 333 334 334 333 333 332 331 331 331 330 330 331 332 328 317 314 313 317 326 326 320 318 318 320 320 318 317 317 316 315 315 315 315 315 314 314 315 316 315 315 315 315 314 314 314 314 314 313 313 314 314 313
339 338 337 335 331 329 327 326 328 329 330 332 335 338 338 337 338 337 332 332 333 333 333 332 331 330 328 328 331 332 332 332 333 334 334 334 333 332 331 330 330 330 328 329 330 332 330 319 314 315 318 326 328 324 321 320 322 322 321 318 317 317 316 315 315 315 314 315 315 314 315 315 315 315 315 315 315 314 314 314 314 314 314 314 313
339 338 337 335 332 329 327 326 328 330 329 330 331 334 337 337 339 339 335 332 332 333 333 333 331 331 329 327 329 331 332 332 331 332 333 334 334 333 332 331 330 329 327 327 330 332 331 321 316 319 320 325 328 327 326 326 325 326 324 321 317 318 319 317 316 315 314 315 314 315 315 315 315 315 315 315 315 314 314 314 314 314 314 313 314
339 338 337 335 332 330 328 326 327 330 330 330 330 331 334 336 338 339 337 334 332 333 332 332 331 331 330 328 328 329 331 331 330 329 328 329 331 332 332 331 330 328 326 326 329 332 331 323 319 322 324 326 330 330 330 330 330 329 327 323 320 321 322 320 317 316 315 314 314 315 314 314 315 314 315 315 315 315 314 314 314 314 314 314 314
339 338 337 336 333 331 329 327 327 330 332 333 332 331 333 336 337 338 338 335 333 333 332 332 331 331 330 329 327 328 329 330 330 327 325 324 325 328 331 331 329 327 324 324 327 331 331 325 321 324 325 328 331 332 331 332 332 331 328 324 323 325 324 322 319 316 314 314 314 314 314 313 314 314 314 315 315 315 315 315 315 315 315 315 315
340 338 337 336 334 332 331 328 327 328 331 334 335 336 336 336 336 338 339 336 333 333 333 332 331 331 331 330 328 327 328 330 330 328 325 323 321 321 326 329 328 326 322 322 326 329 330 326 323 323 326 330 331 332 332 332 332 331 329 325 325 325 324 322 320 317 314 314 314 313 314 313 313 313 314 314 315 315 315 315 315 315 315 315 315
340 338 337 336 334 332 332 331 328 327 329 333 335 337 337 338 337 339 339 337 335 334 334 333 331 331 331 330 329 327 327 329 331 328 326 323 321 318 320 324 325 324 321 321 324 327 328 326 325 323 324 330 331 332 332 332 331 331 329 326 324 324 324 322 322 321 318 315 314 314 313 313 312 312 313 314 314 314 315 315 315 315 315 315 315
340 338 337 336 334 332 332 332 332 330 330 331 332 334 336 337 338 340 339 338 336 334 334 333 331 331 331 331 330 328 327 329 330 328 324 323 321 320 319 320 321 321 320 320 321 326 328 325 326 325 321 325 330 332 332 331 330 330 329 327 326 324 324 323 324 324 322 319 315 313 313 313 312 312 312 313 313 313 313 314 314 314 314 314 314
340 338 337 335 333 332 332 332 333 333 332 331 331 331 333 336 338 339 339 338 336 335 334 333 331 331 332 331 329 328 327 329 330 326 323 321 321 321 322 322 321 321 321 320 319 322 327 325 325 327 319 316 328 332 331 330 329 329 329 328 327 326 326 324 324 325 326 323 318 315 313 312 312 311 312 312 313 313 312 312 313 313 313 313 313
341 338 337 335 334 332 332 331 332 332 332 332 332 331 331 335 338 339 339 338 337 335 334 332 332 332 332 331 329 328 328 329 330 326 322 321 320 321 322 323 323 322 320 318 317 318 323 325 324 328 319 312 326 333 330 329 328 329 329 328 327 328 329 326 324 325 326 325 322 319 313 312 312 312 311 312 312 312 312 312 312 312 312 313 312
340 339 337 335 334 332 332 331 331 331 331 331 332 331 330 334 337 337 337 337 336 335 334 333 332 333 332 331 329 328 329 330 330 325 323 322 321 321 323 323 322 320 318 316 316 318 320 322 322 328 323 312 325 333 329 328 327 328 330 328 327 328 330 328 325 324 325 326 325 321 314 312 312 312 311 311 311 311 311 311 311 311 311 312 312
339 338 337 336 334 333 332 331 331 331 330 330 331 331 330 332 335 336 334 335 336 335 334 333 333 333 332 331 329 328 329 330 329 326 324 323 322 323 324 323 321 319 319 317 315 317 319 320 319 324 326 315 320 331 329 327 328 328 330 330 328 329 330 329 327 324 323 325 325 321 315 314 314 312 311 310 310 310 311 311 310 311 311 311 311
338 338 337 336 335 335 334 332 332 331 330 330 330 331 331 331 333 335 334 334 334 334 335 334 333 333 332 331 330 329 329 330 329 327 325 324 323 324 325 323 322 321 320 318 315 314 316 319 318 319 326 320 318 329 329 325 328 328 330 330 330 330 330 329 329 327 325 326 325 320 318 316 314 312 311 310 309 309 310 310 310 310 310 311 311
336 337 337 337 337 336 335 334 333 332 330 329 330 331 331 331 331 333 335 334 333 334 335 334 332 332 332 331 329 328 329 330 329 327 325 324 324 325 325 323 322 322 319 319 317 315 314 317 318 316 324 326 320 325 328 325 326 327 329 330 329 329 329 329 329 328 326 324 323 321 319 316 314 312 311 310 309 308 308 309 309 310 309 310 310
332 333 335 336 337 337 336 335 335 334 332 330 332 333 333 332 332 332 333 334 334 334 334 333 332 332 332 331 329 328 329 330 328 326 325 323 324 325 326 324 323 322 319 319 317 316 316 316 318 315 319 327 324 321 325 325 325 326 329 329 329 329 329 329 327 325 325 324 322 321 319 317 313 312 311 310 309 308 307 308 308 309 309 309 308
328 328 329 331 334 336 337 337 336 336 335 333 334 335 334 333 333 332 331 332 334 334 334 333 333 331 331 329 328 328 329 329 326 326 326 324 323 324 326 325 324 322 320 320 317 316 317 316 317 314 313 325 328 322 322 324 324 325 328 328 328 328 327 327 325 324 324 325 323 322 320 317 314 312 310 310 310 308 307 307 307 307 307 307 308
326 326 326 327 329 331 334 335 335 335 334 334 334 335 334 334 333 332 330 329 329 332 334 332 332 331 329 327 327 328 329 328 327 327 328 325 323 325 326 326 324 322 321 321 319 317 316 315 316 313 309 321 329 325 321 321 324 325 327 328 327 326 325 324 324 324 324 324 323 323 322 319 316 312 310 309 309 309 308 307 306 307 306 306 307
325 325 326 327 328 329 330 330 330 331 332 332 333 334 334 335 335 332 330 328 325 328 332 331 331 330 326 325 326 328 329 328 327 327 327 327 326 327 327 326 324 323 322 323 322 317 315 314 313 311 311 321 329 327 323 319 322 325 326 327 326 325 324 324 324 324 323 322 322 322 323 321 318 314 311 309 308 309 308 307 307 306 306 306 306
323 325 326 327 327 328 328 327 326 327 330 332 333 333 334 334 336 334 331 329 324 323 327 327 328 328 325 324 326 328 329 328 327 327 327 327 328 329 328 326 325 323 321 323 322 319 317 313 312 314 316 321 325 326 324 320 321 325 325 325 325 324 324 325 323 321 320 320 320 321 322 322 320 316 314 309 307 308 308 307 307 307 307 306 306
322 323 325 325 324 325 325 325 324 324 327 330 331 332 333 334 335 335 333 332 327 323 325 324 323 326 325 326 327 328 329 328 327 327 327 328 330 331 330 328 327 324 321 323 323 323 319 312 312 319 322 324 323 321 321 320 320 324 324 323 323 323 322 322 321 318 317 319 321 321 322 322 320 318 315 312 308 307 307 307 307 307 307 306 306
322 322 323 323 323 322 323 324 324 323 323 325 327 330 331 333 335 335 334 333 330 325 326 325 322 324 326 327 329 329 330 329 329 329 330 331 331 331 331 331 329 325 322 323 324 325 323 314 315 324 328 327 323 319 317 318 319 321 322 322 321 321 321 321 320 318 319 321 322 322 323 323 321 319 317 315 312 308 307 306 307 307 307 307 306
321 321 321 321 321 321 322 322 323 323 321 321 323 327 329 330 333 334 334 334 331 326 326 327 325 323 325 328 329 330 331 331 331 332 332 332 332 333 332 331 331 327 322 323 324 325 326 322 320 325 328 327 326 323 320 319 319 319 320 321 321 321 322 323 323 322 322 324 325 323 324 324 323 322 320 318 316 312 309 308 307 307 307 307 306
320 319 318 318 318 319 319 320 320 321 321 322 322 325 327 327 330 333 333 333 333 329 327 329 329 326 325 327 329 330 331 332 332 332 332 333 333 333 333 332 332 330 324 322 324 325 326 326 326 326 327 328 327 327 325 324 323 321 320 320 321 322 323 325 326 325 325 326 326 325 324 324 324 324 324 321 319 316 313 311 309 307 307 307 306
319 318 316 315 316 317 318 319 320 319 320 322 323 324 325 325 327 330 332 333 334 332 330 330 331 330 327 328 329 329 329 330 331 331 331 332 333 333 333 332 331 331 327 323 324 326 326 327 327 327 327 328 328 328 328 327 326 325 323 323 323 323 323 324 325 324 325 326 327 326 326 324 323 324 325 324 321 318 316 314 312 310 308 308 307
318 316 315 314 315 317 318 318 320 320 321 322 324 324 323 324 324 326 329 331 332 333 333 333 332 332 331 330 331 331 330 330 330 331 332 332 333 333 333 332 332 332 330 325 324 327 327 327 327 328 328 328 328 328 328 328 326 325 325 325 325 324 323 323 323 322 322 325 326 326 326 325 323 323 324 324 322 320 318 316 314 313 312 311 309
318 316 314 313 313 315 316 316 317 319 321 322 323 323 323 323 323 323 325 326 328 329 330 331 332 333 333 332 332 332 331 332 331 331 331 332 333 333 332 333 332 332 332 329 326 327 328 328 328 328 329 329 328 329 329 328 326 326 325 325 325 325 325 325 324 323 322 323 323 324 325 325 323 322 322 323 322 321 319 317 316 315 314 314 313
317 316 314 311 311 312 312 312 313 316 321 323 322 322 322 322 321 321 321 321 322 324 326 326 327 329 332 332 332 332 332 332 332 332 332 332 333 333 332 333 333 333 332 331 328 327 329 329 329 329 329 329 329 330 329 328 327 326 325 325 325 325 325 325 326 325 324 324 324 324 324 325 324 323 321 321 321 321 321 319 317 316 316 315 315
316 315 313 311 310 310 309 310 310 314 320 322 322 321 320 319 318 317 317 317 317 319 322 323 323 324 326 328 329 331 333 332 332 332 332 332 333 333 333 333 332 332 332 332 329 328 329 329 329 329 329 330 330 331 330 329 328 326 325 325 325 325 325 325 325 325 326 326 326 326 326 326 326 325 323 323 323 322 322 321 319 318 318 318 317
315 313 312 311 310 309 309 309 309 311 316 319 320 318 317 316 314 314 313 314 315 316 319 321 322 322 322 322 323 326 329 329 330 331 332 332 333 333 333 332 331 331 333 332 331 329 329 329 329 329 330 331 330 331 331 330 328 326 325 326 325 325 325 325 325 325 325 327 327 328 327 327 326 326 326 326 326 325 324 323 323 322 321 321 320
315 313 312 311 310 309 309 308 308 309 313 317 317 316 315 313 312 313 312 313 313 314 316 318 319 319 319 319 318 319 321 322 324 327 329 330 332 332 332 330 331 332 332 331 332 330 329 329 330 330 330 331 331 331 330 330 329 327 326 326 326 326 325 325 325 324 325 325 326 327 328 327 327 327 327 327 327 327 326 326 325 324 324 323 323
314 313 312 312 310 309 308 307 307 308 311 314 314 313 312 310 311 312 311 312 312 312 314 316 315 315 314 314 313 313 315 317 318 321 323 325 328 330 330 330 331 332 331 331 333 332 331 331 331 331 331 331 331 331 331 331 330 329 327 326 326 326 325 324 324 324 325 324 324 326 326 326 325 326 327 327 327 327 327 327 326 326 325 324 323
315 314 313 312 311 309 308 307 307 308 309 309 309 309 309 308 310 310 309 310 311 310 311 313 313 312 310 309 308 308 310 312 312 315 319 321 322 324 327 329 331 331 332 332 333 332 332 332 332 331 331 331 331 331 331 331 330 330 328 327 326 327 326 325 324 324 325 324 324 324 325 323 322 323 324 325 327 328 327 327 327 327 325 324 324
316 315 314 313 311 309 308 307 307 307 307 307 307 308 308 308 309 309 307 308 308 307 308 309 310 309 307 306 306 305 306 307 307 309 312 315 317 318 321 325 329 331 331 332 332 332 331 332 332 331 331 331 331 331 331 331 331 330 329 328 328 327 327 326 324 324 324 325 325 325 325 324 323 322 321 323 327 328 328 327 327 327 326 325 324
317 316 315 314 312 310 308 308 307 307 306 307 307 309 309 308 308 308 307 307 307 307 307 307 307 306 305 304 304 304 304 305 304 305 307 310 312 314 316 320 324 327 329 330 330 332 331 331 332 332 332 332 331 331 330 330 331 331 331 330 329 328 328 326 325 324 325 325 325 325 325 325 324 324 323 323 324 326 327 328 328 327 327 326 325
317 317 316 315 312 309 308 308 308 307 308 308 309 310 310 308 308 308 308 307 307 307 307 307 306 306 306 305 305 304 304 303 304 304 305 306 308 310 313 315 318 321 324 326 327 329 329 329 329 331 331 332 332 331 330 331 331 331 332 331 331 330 329 328 327 326 326 327 327 326 326 325 324 324 324 323 323 324 325 326 327 327 327 327 326
317 317 316 316 313 310 309 309 308 308 309 309 311 311 309 309 309 309 310 309 308 308 308 308 307 307 306 306 306 305 304 303 304 304 304 305 307 308 310 312 314 315 317 320 322 324 326 326 327 329 330 330 331 330 330 330 330 331 331 331 331 330 330 329 329 328 328 328 329 328 326 326 325 324 324 324 324 323 323 324 325 327 327 327 327
318 318 317 316 314 311 309 309 309 309 310 310 311 311 309 309 309 309 310 310 309 308 308 308 308 308 307 306 306 306 305 304 304 305 305 306 306 307 309 310 312 312 312 314 316 317 319 321 323 325 326 327 328 328 328 328 329 330 331 330 330 330 330 330 329 329 329 329 329 328 326 326 325 324 325 325 325 325 324 323 323 325 326 327 327
318 318 318 317 316 312 310 309 310 310 310 310 311 311 310 309 309 309 309 309 309 309 309 309 308 308 307 307 306 306 306 305 304 305 306 307 307 308 309 310 311 311 310 310 311 313 314 315 317 319 321 323 325 326 326 327 327 327 328 329 329 328 328 329 329 329 328 328 328 327 326 326 325 325 325 326 326 325 325 325 324 323 324 326 327
318 318 318 318 316 313 310 309 310 310 310 310 311 311 309 309 309 309 310 310 310 310 309 309 309 308 308 307 307 307 307 306 305 304 305 306 307 308 309 310 311 312 311 309 309 310 311 311 312 314 317 319 321 323 324 325 325 326 326 327 327 327 327 327 328 328 329 329 328 328 327 326 326 326 326 327 326 326 326 326 325 325 324 324 325
319 318 318 318 317 313 310 310 310 310 310 310 311 311 309 309 309 310 311 310 310 311 310 310 309 309 308 307 307 307 307 307 306 305 304 304 305 305 306 307 308 308 309 308 309 309 310 311 312 313 315 317 318 320 321 321 322 323 324 324 324 325 326 326 327 328 328 329 329 329 328 328 328 328 328 328 327 327 327 326 326 326 326 325 325
319 319 318 318 317 314 311 310 310 310 310 311 311 310 309 309 310 310 311 311 311 311 311 310 310 309 309 308 308 307 307 307 306 306 305 305 305 304 305 304 305 305 305 305 306 307 308 310 311 314 316 318 318 318 319 319 319 320 321 322 323 323 323 324 325 326 326 327 328 329 329 329 329 328 328 328 328 328 328 328 327 327 327 327 326
319 319 319 318 318 316 312 310 311 311 311 311 311 310 309 309 310 310 310 311 311 311 311 311 311 310 310 309 308 308 308 307 307 306 306 306 306 306 305 305 305 305 305 304 304 305 305 306 307 310 313 316 318 319 319 318 318 319 320 320 321 321 322 323 323 324 324 325 325 326 327 328 328 328 328 328 328 328 328 328 328 328 328 328 328
319 319 319 319 319 317 314 312 313 312 311 311 311 310 310 309 309 310 310 311 311 311 311 311 311 311 310 310 309 308 308 307 307 306 306 306 306 306 306 306 306 305 305 305 305 305 304 304 304 305 307 310 313 315 317 318 318 319 320 320 319 319 320 322 322 323 324 324 324 324 324 325 325 327 328 329 328 329 328 328 328 328 328 328 328
Wind_Speed
20 16 15 15 15 15 16 19 19 19 18 19 20 19 18 17 17 17 15 14 13 12 12 12 13 13 14 15 15 16 18 19 20 21 22 22 21 20 19 17 16 15 14 13 12 12 12 11 10 10 10 9 8 8 7 6 7 7 8 9 11 11 11 12 14 14 16 19 19 18 17 16 14 13 14 14 14 15 16 17 17 17 18 19 19
21 18 16 15 15 16 16 18 20 20 19 19 20 19 18 17 18 17 16 14 13 13 13 13 13 13 14 16 16 17 19 20 21 21 20 20 19 18 17 16 15 14 13 12 11 10 10 10 10 10 10 9 8 7 7 6 7 7 7 10 12 11 10 11 12 13 15 17 18 18 17 16 14 13 13 14 14 14 15 16 16 16 17 18 17
20 18 16 15 15 15 15 17 20 21 20 19 19 19 18 17 18 17 16 14 13 13 13 13 14 14 14 15 16 17 19 20 19 19 19 18 18 17 16 15 14 13 12 12 11 10 9 9 10 10 11 10 8 7 8 8 7 8 8 11 13 12 10 10 11 12 14 16 17 17 16 15 14 13 13 13 13 14 14 15 15 15 16 16 15
20 18 16 15 14 14 15 16 19 21 21 19 19 18 18 17 18 18 16 15 14 14 14 14 14 14 14 15 16 16 17 17 17 17 17 17 17 16 16 15 14 12 12 11 10 9 8 9 9 10 12 12 10 9 10 9 9 10 10 13 15 13 11 9 10 11 14 16 16 16 15 14 13 13 12 12 13 13 13 14 14 14 14 14 14
20 18 16 14 14 14 14 16 18 21 21 20 19 18 17 17 18 18 17 15 14 14 14 14 14 13 13 14 15 16 16 16 16 17 18 17 16 16 15 15 14 12 11 11 10 9 8 8 9 11 14 15 14 13 12 12 12 12 12 14 16 15 12 11 11 13 15 16 16 15 14 14 12 12 12 11 11 12 12 13 13 13 12 12 12
20 19 16 14 14 13 14 15 17 20 21 20 18 18 17 17 18 18 17 15 14 13 13 14 13 13 12 12 13 14 15 15 16 17 17 17 16 15 14 14 14 13 11 11 11 10 10 9 10 13 17 18 17 16 14 14 15 15 15 16 18 17 15 14 15 16 17 15 15 14 13 13 11 12 12 10 10 11 11 11 12 11 11 11 11
19 18 16 14 14 14 14 15 17 19 20 20 19 17 17 17 17 18 17 16 14 13 12 12 12 12 12 11 12 13 14 14 15 15 15 15 15 15 14 14 13 13 12 11 10 11 12 12 11 14 20 21 20 19 16 16 18 17 17 19 20 18 17 16 17 17 16 15 14 13 13 12 10 11 11 10 10 10 10 10 10 10 10 10 10
19 18 16 14 14 14 14 15 16 18 19 19 19 18 17 16 17 18 17 16 14 13 12 11 11 11 11 11 11 11 12 12 13 14 13 13 14 14 13 13 13 12 12 11 11 11 13 14 13 16 21 22 22 21 19 18 19 18 17 19 21 20 18 17 17 16 16 15 13 12 12 12 10 9 10 10 9 9 9 9 9 9 9 8 9
19 18 16 14 13 13 13 14 15 17 18 18 18 18 17 17 16 17 18 16 15 13 12 11 11 11 11 11 12 11 10 10 11 11 11 11 11 12 11 11 12 11 12 12 12 11 13 16 15 18 21 22 22 22 21 19 19 18 17 18 21 21 20 18 17 16 15 15 13 12 11 11 10 8 9 9 9 8 8 8 8 8 8 8 8
19 18 16 14 13 12 12 13 15 16 17 17 18 17 17 17 17 18 18 17 15 13 12 11 11 10 10 11 11 12 11 9 9 9 9 10 10 11 10 10 10 11 11 11 13 12 12 16 17 19 21 23 22 23 22 20 19 19 17 17 19 21 20 19 18 16 15 14 13 12 11 10 11 9 8 8 8 8 7 7 7 7 7 7 7
19 19 16 14 13 11 12 13 14 15 17 18 18 18 17 17 18 18 19 18 16 14 12 11 11 10 10 10 10 11 11 10 9 9 9 9 10 10 9 8 9 10 10 10 13 13 12 16 18 19 21 22 23 23 22 20 19 18 17 16 17 19 20 18 18 16 15 14 13 12 12 11 10 10 9 8 7 7 7 7 6 6 7 7 7
20 19 17 14 13 11 11 12 13 14 16 17 17 18 17 17 17 17 18 18 17 15 13 11 10 10 9 9 9 10 11 11 11 10 9 9 9 9 9 8 7 8 10 9 11 14 14 15 19 19 20 22 23 22 21 19 18 16 16 16 15 16 17 17 17 16 15 14 12 12 12 11 9 9 9 8 8 7 7 7 6 6 6 6 6
21 20 17 15 13 11 11 11 12 13 15 16 15 16 17 16 17 17 17 18 18 16 14 12 10 10 9 9 9 9 9 10 11 11 9 9 8 9 9 8 7 8 9 9 10 14 15 15 18 19 19 21 22 22 21 20 18 15 14 15 14 13 14 16 17 16 15 14 12 12 12 12 10 8 8 8 8 8 7 7 7 6 6 5 5
21 20 17 15 13 11 10 10 10 11 13 15 14 14 15 15 16 16 17 18 19 17 14 12 11 10 9 9 8 8 8 8 10 11 10 8 7 7 9 8 7 7 9 9 9 11 14 15 17 19 19 20 21 22 22 19 17 15 14 14 14 12 11 15 17 16 16 14 13 12 11 11 11 9 8 8 8 8 7 7 7 6 5 5 4
19 19 17 16 13 12 11 10 10 10 12 13 13 12 13 14 15 16 17 19 18 17 15 12 11 10 10 9 8 7 7 8 9 10 9 8 7 7 8 8 7 7 7 8 8 10 12 15 17 18 19 19 21 22 20 18 16 14 13 13 14 13 10 12 15 16 15 14 13 12 11 10 11 10 8 8 8 8 8 7 7 6 5 5 4
18 18 17 16 13 12 12 11 12 11 11 12 12 11 10 13 15 15 16 18 18 17 15 12 11 10 9 8 7 7 7 8 9 9 8 7 7 7 8 8 8 6 5 6 7 9 11 14 17 17 18 19 21 21 19 17 15 14 13 13 14 13 10 10 12 14 13 12 12 11 10 10 11 11 10 9 9 9 8 8 8 7 6 5 4
18 18 17 15 14 12 11 12 12 11 11 11 10 10 10 12 14 15 15 17 17 16 15 12 11 10 9 8 7 7 7 8 9 9 7 7 7 7 8 8 7 7 6 6 7 9 11 14 17 17 18 20 21 21 18 16 14 14 13 12 12 13 11 9 9 11 11 10 9 9 9 9 11 11 10 9 9 9 9 9 8 8 6 5 4
19 18 17 15 14 12 11 11 11 11 10 10 9 9 9 11 13 14 14 15 16 17 15 13 11 9 9 9 7 7 7 8 9 8 7 7 6 6 6 6 6 6 6 6 8 10 11 13 16 18 18 21 23 21 19 17 14 14 14 13 11 11 11 9 8 8 8 7 7 7 7 8 9 10 10 10 10 10 10 9 9 8 7 6 5
19 19 17 15 14 13 11 10 10 10 9 8 8 8 9 11 13 13 13 14 15 17 16 13 10 9 9 9 8 7 8 9 10 8 7 7 6 6 6 6 6 5 4 4 7 11 13 12 16 19 19 21 24 23 19 16 14 14 14 13 11 10 11 10 8 6 6 5 5 5 5 6 7 9 10 10 10 10 10 10 10 9 8 6 6
18 18 17 15 14 12 11 10 10 10 9 8 7 7 8 10 12 12 12 12 14 16 16 13 10 10 10 10 8 8 9 10 10 8 7 6 5 5 5 6 6 5 4 4 5 9 13 12 14 18 21 21 23 23 20 16 13 13 13 12 11 10 10 10 8 6 5 4 4 4 4 4 5 6 8 10 10 9 10 10 10 9 8 7 6
17 17 16 15 14 12 11 10 10 11 10 9 8 7 7 9 10 11 11 11 13 14 15 14 12 11 11 10 8 8 9 10 10 9 7 6 6 5 5 6 5 4 3 4 5 7 11 12 12 17 22 21 22 24 21 15 13 12 13 13 12 11 10 9 7 6 5 4 3 3 3 3 2 2 5 8 9 8 9 9 9 9 8 7 6
17 17 16 15 14 13 11 10 10 10 11 10 9 8 7 7 8 10 11 11 12 13 14 13 13 13 12 11 8 8 8 10 10 9 7 7 6 6 5 5 5 4 3 3 5 7 9 11 12 16 22 22 21 24 22 16 13 11 12 14 13 12 10 8 7 6 5 4 3 2 2 2 2 1 2 6 8 7 7 8 7 7 7 6 5
17 16 15 14 14 14 12 11 10 10 11 10 9 8 8 8 8 10 11 11 12 13 14 13 13 13 12 10 8 8 9 10 10 8 8 7 7 6 5 5 5 4 2 2 3 6 8 10 12 14 21 24 21 22 23 18 14 12 12 14 14 12 10 8 8 6 4 4 3 3 2 2 2 1 1 4 7 7 7 7 6 6 5 5 5
16 15 14 14 12 12 12 11 11 10 11 11 10 8 9 10 10 11 11 12 12 12 13 13 13 12 11 10 9 9 10 10 10 9 9 8 8 7 6 5 6 5 2 1 2 4 8 9 11 13 19 25 22 20 23 21 16 13 13 13 13 12 10 9 8 7 5 3 3 3 3 3 2 2 2 3 5 7 7 6 6 6 6 5 5
15 14 13 13 12 11 10 11 10 10 10 10 10 10 10 12 13 12 12 12 12 12 12 13 13 12 11 10 10 10 10 10 9 9 9 8 8 8 8 6 6 5 2 1 1 3 7 10 12 12 17 25 24 19 21 22 19 15 14 14 13 12 11 10 8 7 6 4 3 2 2 2 2 3 3 4 5 7 7 7 8 8 7 7 6
14 13 13 12 11 11 9 9 9 9 9 8 8 9 11 12 14 14 14 13 13 14 14 13 13 12 11 10 10 10 11 10 9 8 7 7 8 9 9 7 6 6 4 1 1 2 5 9 11 12 16 23 25 20 19 22 22 18 15 14 14 13 11 10 8 7 6 5 4 3 3 2 1 2 3 5 6 7 8 9 9 9 8 8 7
14 12 12 11 11 10 9 9 8 8 8 8 8 9 10 11 13 14 15 14 13 14 14 14 14 13 11 11 11 11 11 10 9 8 7 7 8 9 9 8 7 7 5 3 2 2 3 7 12 14 17 20 22 21 18 20 23 20 17 15 14 14 13 10 9 8 7 6 5 4 4 3 2 2 3 4 6 7 8 9 10 9 9 8 8
13 12 12 11 10 9 9 8 8 8 8 9 8 8 9 10 12 14 15 14 13 13 13 12 13 13 12 11 10 10 11 10 10 9 9 8 9 11 11 9 9 8 7 5 6 6 5 9 15 17 18 18 19 20 19 20 24 23 18 16 15 14 13 11 10 10 9 7 6 5 5 5 4 4 4 4 5 7 7 9 10 10 9 9 9
13 13 12 11 10 9 8 8 7 8 8 9 9 9 10 10 11 13 15 14 13 12 12 11 11 13 13 11 11 10 10 9 10 10 9 10 12 13 12 11 11 10 10 8 9 8 8 11 17 18 17 18 17 17 18 20 23 24 20 16 15 14 13 11 10 11 10 8 7 6 5 5 5 5 5 4 4 6 7 8 9 11 10 9 10
13 12 12 12 11 10 9 8 8 8 8 9 10 11 10 10 10 13 15 14 13 13 12 11 10 12 13 12 11 10 9 9 9 10 10 11 12 13 13 14 14 13 12 12 11 10 8 11 15 16 16 17 17 17 16 17 18 20 20 17 15 14 13 11 10 11 10 8 7 6 5 5 5 5 5 5 5 5 6 6 7 9 10 10 10
15 13 12 11 10 10 10 9 9 9 8 8 9 10 10 10 10 13 14 14 14 14 13 12 11 12 13 12 11 11 11 10 10 11 11 11 12 13 14 15 16 15 15 14 14 13 11 11 12 13 14 15 15 15 15 16 16 16 17 17 15 15 14 11 10 10 10 9 7 6 6 6 6 5 5 6 6 6 6 6 7 8 9 10 11
16 14 12 11 11 10 10 9 9 9 9 8 7 8 8 9 9 10 12 13 14 15 15 15 14 13 14 13 12 12 12 12 13 13 13 13 13 13 13 15 16 16 16 16 17 16 15 14 13 12 12 13 13 13 14 15 16 16 15 16 15 14 13 12 12 12 12 10 8 7 7 7 7 6 6 7 7 7 7 7 7 8 9 10 11
15 12 11 11 11 11 11 10 10 9 9 8 7 7 7 7 7 7 9 10 12 14 16 16 17 17 16 15 15 14 13 14 14 14 14 14 13 12 12 14 16 17 17 17 18 19 18 17 15 15 14 13 13 13 13 14 16 16 15 15 15 13 11 11 12 14 13 12 11 9 9 9 9 9 8 9 9 9 9 8 8 9 10 10 11
13 11 10 11 12 12 12 12 11 10 9 8 7 7 6 6 6 5 6 8 10 11 13 14 16 17 17 17 16 15 15 14 14 14 14 14 13 13 13 13 15 16 18 18 19 20 19 19 18 17 16 15 14 13 12 13 15 16 15 15 15 13 11 11 11 12 12 12 12 12 11 11 11 11 11 11 11 11 11 11 10 10 11 11 11
12 11 10 10 11 11 11 10 10 10 9 8 7 6 6 6 6 7 8 10 10 11 10 10 12 14 16 16 16 15 15 14 14 14 13 13 13 13 13 13 14 15 18 20 20 20 19 20 20 19 19 17 15 14 13 13 15 16 16 15 15 13 12 12 11 12 11 11 11 11 12 13 13 13 13 13 13 13 13 13 13 13 12 13 12
11 11 10 10 9 9 8 7 8 9 10 8 7 6 6 6 6 8 10 12 12 11 10 9 8 9 11 13 14 15 16 16 15 13 12 12 13 15 14 12 13 14 17 20 21 21 19 20 22 22 20 18 16 15 14 15 16 17 17 15 14 14 13 13 13 13 12 12 11 11 11 13 14 14 14 14 14 14 14 13 14 14 14 14 12
11 10 10 10 8 7 6 6 7 9 10 10 8 7 6 6 6 7 9 10 10 10 10 8 7 6 6 7 8 11 15 17 16 15 14 12 12 14 12 11 13 13 13 17 20 21 19 18 21 24 23 19 17 16 14 15 16 18 18 15 14 14 14 14 14 14 15 15 14 12 12 12 14 15 14 14 15 15 14 13 13 14 14 13 12
12 11 10 10 8 7 7 7 8 10 11 11 10 8 6 6 6 7 7 7 7 7 8 8 7 6 5 5 5 6 9 12 15 17 18 15 13 12 10 11 14 13 12 14 18 21 20 19 20 24 24 19 16 16 15 14 15 17 18 16 14 13 14 16 16 16 16 17 17 16 15 13 14 15 16 16 16 15 14 13 13 13 14 13 12
15 14 12 11 9 9 9 9 10 12 12 13 11 9 8 8 8 6 5 5 5 5 5 5 5 5 5 6 6 6 7 8 11 14 16 17 16 16 14 13 14 14 13 15 17 18 20 20 19 21 21 18 16 16 15 15 15 15 17 18 16 14 14 16 18 19 18 17 16 16 16 15 15 16 17 17 17 17 16 15 14 14 14 13 13
17 15 14 13 11 11 11 11 12 13 13 14 12 11 10 9 8 6 5 6 5 3 3 3 3 4 6 7 8 7 8 8 9 10 11 11 12 14 15 16 15 14 13 14 14 14 18 21 20 19 19 19 19 18 17 16 16 16 17 19 19 17 16 16 19 21 21 19 17 17 17 17 17 17 17 17 18 18 18 17 17 16 15 14 14
19 17 16 14 13 12 12 12 14 14 14 13 12 12 11 9 9 8 6 5 4 3 2 1 3 4 4 5 6 8 9 10 10 9 8 8 8 8 10 15 17 16 14 13 13 13 15 17 19 19 18 20 21 21 19 17 17 18 17 17 18 19 18 17 19 22 22 21 19 19 20 20 20 19 18 18 19 19 19 19 19 18 17 16 16
22 20 17 15 15 14 12 13 14 14 14 12 12 11 10 9 9 8 7 6 5 5 5 3 1 1 2 2 1 3 6 8 9 9 7 7 8 7 8 11 14 16 15 14 13 12 13 11 14 18 18 19 21 23 22 19 18 17 15 15 15 17 19 19 20 21 21 20 20 21 22 22 23 22 20 19 20 20 20 20 20 20 19 19 18
23 22 19 18 17 15 14 14 13 14 14 13 11 10 9 9 8 8 7 7 6 7 7 6 5 5 5 6 5 4 3 4 6 8 7 7 7 7 8 8 9 12 13 12 11 10 11 8 8 13 16 17 18 21 22 21 19 15 12 13 13 14 17 19 21 22 21 21 21 22 23 23 23 23 23 22 22 22 22 22 22 22 21 21 20
26 24 22 21 19 17 16 15 14 14 14 13 12 10 10 9 7 6 6 5 6 6 7 7 7 7 7 7 7 6 5 5 4 5 6 6 6 6 7 7 7 7 8 10 9 8 9 8 6 10 14 14 14 16 17 18 20 16 10 9 12 13 14 15 18 20 21 21 22 23 23 23 22 22 23 24 24 24 23 23 23 23 23 22 22
29 28 26 23 21 18 18 16 15 14 14 14 14 13 12 10 8 7 6 6 6 6 5 6 7 7 7 7 7 7 7 6 3 3 3 3 3 4 4 5 5 5 5 7 7 7 8 8 8 9 11 12 12 12 12 13 15 17 14 12 11 11 12 13 15 17 19 19 21 22 23 23 23 22 23 24 24 25 25 25 25 25 24 24 23
33 31 28 24 21 20 19 18 16 15 14 14 15 14 12 11 8 7 6 5 6 7 5 5 5 6 7 7 7 7 7 8 6 3 2 1 1 1 2 3 4 5 4 5 6 7 7 8 9 10 10 11 11 11 11 9 9 11 15 15 13 11 11 11 13 14 16 17 18 20 22 24 24 24 24 24 25 25 26 26 26 26 26 26 25
35 33 29 25 23 22 21 20 18 16 15 15 17 16 14 11 8 6 5 4 5 6 4 4 4 4 5 6 5 5 6 7 8 7 6 4 3 1 1 2 4 5 5 4 5 6 6 7 8 10 10 10 10 10 9 9 8 8 10 13 14 14 13 13 12 14 15 17 18 18 20 22 23 25 25 25 25 26 27 27 27 27 27 28 28
36 34 32 28 25 24 23 21 20 17 16 17 18 17 15 12 10 7 7 6 6 6 5 3 3 2 3 4 4 4 5 6 6 7 8 7 7 5 3 2 2 1 2 2 2 4 6 6 7 8 10 11 11 11 10 10 9 9 10 12 12 13 14 14 14 15 15 18 20 18 18 20 20 21 21 22 23 25 27 28 28 28 28 28 28
37 35 34 31 27 25 25 23 22 20 18 18 19 19 16 13 11 9 8 7 7 8 6 4 3 3 2 2 3 2 3 4 5 6 6 7 7 6 5 4 4 4 4 4 3 2 3 5 6 7 9 10 11 12 12 12 12 11 11 11 11 12 12 12 13 15 16 17 20 20 19 20 21 21 19 18 19 20 22 25 27 28 28 28 28
38 37 35 32 28 27 27 26 24 22 20 19 21 20 18 15 13 12 10 9 9 9 8 5 4 4 3 2 2 2 1 2 3 4 5 5 5 5 5 4 4 4 4 4 3 3 3 4 5 6 8 10 12 13 14 14 14 14 13 13 13 13 12 10 11 12 14 16 18 20 20 21 23 24 24 23 23 23 22 21 22 25 27 27 26
39 38 36 34 30 29 29 28 26 24 22 22 22 22 20 19 16 14 12 11 10 10 8 7 6 5 4 4 4 3 2 1 1 2 3 3 3 3 3 3 3 3 4 4 4 3 4 5 6 7 8 10 12 14 15 16 17 17 16 15 16 15 13 12 12 11 11 14 17 20 21 22 24 26 26 27 28 29 28 25 22 22 24 25 26
Wind_Direction
168 159 157 154 157 162 166 169 168 167 163 158 154 151 148 147 143 136 131 129 126 118 115 111 107 104 101 101 107 119 126 130 132 134 136 136 135 133 130 128 127 127 127 129 132 135 135 132 128 124 116 110 113 118 114 109 100 102 110 105 104 104 108 120 128 136 135 128 125 123 120 117 119 121 118 115 112 108 106 103 100 97 93 89 85
162 157 156 154 158 161 166 168 169 169 165 160 156 153 149 148 144 137 133 131 127 119 114 111 109 106 103 104 112 126 130 130 130 131 131 132 130 129 128 127 125 125 128 129 133 134 136 134 131 128 123 120 120 125 127 123 113 114 121 113 108 105 110 121 129 140 142 136 132 128 125 122 124 127 123 119 115 111 108 105 103 99 94 89 85
159 155 154 155 158 159 166 169 169 170 166 162 158 157 151 149 147 140 135 134 128 119 113 111 109 108 107 108 116 129 134 133 132 132 131 131 130 128 126 123 122 122 124 125 128 130 132 133 135 136 133 132 134 141 140 133 126 123 127 117 110 107 110 121 129 144 149 139 135 132 130 130 130 129 125 124 119 114 111 108 105 101 96 91 87
160 155 155 157 156 157 166 170 170 171 169 164 160 159 154 151 149 143 138 137 129 120 114 110 109 109 111 113 117 127 137 138 135 132 131 132 128 123 120 116 113 112 115 118 121 122 125 129 137 143 141 140 143 149 143 137 131 126 128 119 111 109 113 122 130 144 148 140 137 137 135 134 133 131 127 127 122 116 113 110 108 102 97 92 88
159 157 158 157 154 157 167 171 172 172 171 167 162 160 156 153 152 147 141 141 134 126 120 114 112 110 112 114 119 125 134 138 135 132 131 131 126 122 119 113 107 104 106 111 115 114 112 118 133 145 144 142 145 147 143 138 131 127 127 117 111 112 115 120 128 138 140 136 136 137 136 133 135 133 128 128 124 119 116 113 109 104 98 94 89
161 160 159 155 154 157 166 171 172 172 172 171 167 163 159 156 156 153 146 146 141 133 127 120 117 114 113 113 120 126 131 136 134 132 130 130 128 126 122 119 113 107 105 111 117 113 106 107 124 144 144 141 143 144 143 140 132 129 126 118 115 116 119 122 126 131 131 132 134 134 133 134 139 135 129 130 127 122 118 114 110 105 100 94 88
162 161 159 157 157 159 165 170 171 172 173 173 171 167 162 160 161 159 153 150 147 140 134 127 121 118 116 114 118 125 132 136 136 135 133 133 131 128 124 122 118 112 109 112 121 117 107 105 119 142 142 139 140 142 143 142 135 133 132 126 121 120 124 127 127 127 128 130 133 133 132 133 137 137 134 134 130 126 122 116 112 107 101 94 88
163 164 163 160 160 160 164 168 170 172 172 173 174 172 167 164 164 165 160 155 152 148 141 135 127 122 120 118 119 122 130 135 140 141 141 142 134 129 126 121 118 114 110 110 120 120 110 105 121 146 143 136 138 141 143 143 139 138 140 135 127 125 127 130 132 131 131 131 131 133 134 134 138 142 137 135 132 130 126 120 115 109 102 94 87
165 167 166 163 162 159 161 167 169 170 171 173 174 175 173 169 167 169 168 162 157 153 148 143 134 127 123 121 124 124 127 133 140 143 145 150 142 134 129 122 120 116 110 111 118 122 114 108 126 150 145 137 138 141 143 143 141 140 144 144 135 130 130 132 133 134 134 132 131 132 134 135 136 140 136 134 134 131 127 122 116 110 102 92 85
169 169 168 165 161 158 158 165 170 170 171 173 175 176 178 175 172 173 173 169 164 160 157 151 143 135 129 126 129 131 129 130 138 143 146 150 150 147 140 131 128 120 112 114 117 122 119 114 130 152 149 141 140 141 142 143 141 139 143 149 143 133 131 131 131 132 134 131 129 130 131 132 134 138 139 138 135 133 131 125 117 109 101 94 88
172 171 170 166 161 159 157 163 168 169 172 174 176 177 181 181 178 178 177 173 170 169 165 159 153 144 136 132 132 136 134 132 137 141 143 143 147 152 150 140 131 123 117 117 117 122 122 119 133 151 151 144 139 138 139 139 138 137 140 150 148 134 126 127 129 130 132 130 128 130 130 132 138 143 145 142 137 134 133 126 118 109 103 98 93
173 174 172 167 164 159 157 162 164 167 171 174 178 179 184 184 181 183 180 176 176 177 172 165 161 154 147 141 136 138 140 140 141 140 142 142 145 150 154 151 140 128 124 123 120 124 124 122 136 150 153 145 139 136 134 133 133 135 141 148 145 132 123 124 127 129 129 127 128 132 132 134 140 146 147 146 142 138 135 130 123 114 108 105 101
175 175 172 168 167 161 155 158 161 164 166 170 176 181 188 186 183 186 185 181 180 182 177 172 169 163 157 149 141 140 144 147 148 147 148 150 152 156 161 159 149 139 133 131 127 129 128 126 140 153 157 149 141 136 133 132 133 140 148 145 139 136 130 125 126 128 127 125 127 132 134 135 139 147 150 150 148 143 142 135 128 124 121 116 111
176 175 171 170 170 162 151 151 157 159 162 167 171 179 188 187 184 186 188 186 184 185 181 177 176 170 163 155 145 143 146 152 157 155 154 156 158 164 170 167 159 151 141 139 137 137 135 134 144 156 162 154 145 139 135 135 138 146 156 147 139 142 139 132 130 129 127 126 128 132 135 139 142 150 156 155 151 148 147 142 136 136 136 132 124
178 174 172 173 172 164 153 146 147 148 154 162 166 174 183 185 185 185 188 188 187 188 183 180 178 172 168 161 153 149 152 159 164 161 157 157 156 162 169 174 173 163 149 149 152 149 144 141 147 158 167 161 150 144 139 140 144 150 162 157 144 144 147 141 133 129 127 127 129 133 138 146 150 156 163 159 154 154 152 147 145 150 153 148 132
180 176 174 173 175 170 159 146 142 142 146 156 164 169 175 178 182 183 184 186 188 189 184 182 180 174 174 170 161 156 159 165 169 165 159 155 158 159 164 173 179 180 173 165 165 162 153 148 149 156 170 173 158 150 146 145 149 156 170 168 149 144 147 145 135 129 126 126 130 136 143 153 159 161 166 165 160 159 159 155 154 161 166 156 137
181 179 176 174 177 175 165 153 147 144 144 150 159 164 171 172 176 181 180 182 186 188 185 183 181 179 181 178 168 164 169 173 172 167 160 157 161 165 171 179 181 187 189 184 185 176 163 153 152 155 169 180 168 156 152 150 156 165 175 175 154 145 144 143 139 131 125 124 128 138 148 160 168 169 171 171 168 165 163 162 161 167 171 159 144
180 180 179 178 178 179 173 161 155 151 148 149 154 159 167 168 171 178 178 180 183 186 186 182 181 184 187 183 174 172 177 178 174 169 164 162 166 174 179 183 183 188 190 190 193 187 177 162 156 156 166 180 173 161 158 158 165 172 178 180 163 151 145 142 146 139 126 122 127 140 149 162 173 177 177 176 177 172 168 166 165 170 171 160 150
179 182 181 183 183 183 177 168 164 158 158 159 157 155 161 168 169 174 178 182 184 184 184 179 183 191 191 188 183 178 179 179 176 172 168 167 173 179 181 181 178 179 173 172 185 186 184 171 162 160 165 178 176 166 163 163 171 177 179 181 174 162 150 144 152 154 135 122 128 142 148 159 175 182 184 182 182 178 171 169 170 172 170 162 154
179 184 184 187 188 188 183 175 172 168 170 173 170 161 162 172 173 174 177 184 187 187 186 181 187 196 194 193 192 184 178 179 177 174 174 176 183 183 181 179 173 172 165 158 176 185 186 180 170 165 167 178 180 171 166 167 172 177 177 178 178 172 157 149 154 161 152 139 139 146 152 159 174 187 195 194 190 185 177 176 177 174 168 165 158
176 184 187 192 192 194 193 184 180 179 181 180 183 180 176 180 180 179 178 185 191 192 192 190 189 191 195 197 197 188 179 180 180 180 183 183 190 188 181 177 174 182 185 174 175 183 188 186 179 172 170 177 182 175 169 170 171 173 174 173 176 176 164 156 156 161 162 166 168 156 163 174 181 197 212 207 200 198 192 186 184 177 171 171 166
171 179 186 193 195 197 199 198 191 189 190 186 187 191 195 195 189 188 187 191 192 194 196 197 192 187 194 199 197 189 181 185 187 189 193 193 197 194 184 177 181 201 204 197 190 182 186 187 182 176 174 178 183 179 174 174 173 169 172 172 175 176 171 167 164 165 170 182 191 175 180 189 190 199 229 219 211 211 211 204 198 190 182 180 177
165 171 177 183 191 198 200 205 205 203 201 196 195 196 201 204 205 201 199 198 196 194 193 195 194 188 193 198 195 189 185 189 194 198 201 204 203 197 188 178 192 216 209 213 212 188 187 191 187 180 178 179 182 182 179 179 178 170 170 174 178 180 179 180 180 180 177 176 186 191 197 195 200 206 230 231 224 224 229 225 220 216 203 198 198
162 163 164 166 174 187 195 204 210 214 212 211 213 213 206 205 211 213 212 210 204 198 191 190 194 192 193 198 197 190 188 194 201 204 201 203 206 203 196 184 195 214 201 184 235 202 195 195 192 186 181 181 181 183 182 183 184 176 171 176 182 185 185 187 188 190 190 182 186 195 202 199 200 205 217 239 233 229 235 238 235 234 227 221 222
166 166 166 164 162 168 180 188 196 205 210 215 221 223 214 207 208 215 222 221 215 206 196 191 196 200 200 201 200 193 191 201 209 208 203 206 210 209 204 196 199 206 195 167 269 229 208 199 192 187 180 181 181 182 184 186 187 181 175 178 186 190 188 189 191 195 199 204 214 219 228 219 203 205 212 227 231 228 232 238 240 241 237 236 236
173 175 175 174 168 167 175 180 184 192 199 206 212 215 213 209 209 215 224 225 222 213 205 201 203 208 210 207 203 198 197 206 212 210 211 218 220 219 213 207 207 204 189 163 302 243 217 201 187 179 174 177 181 181 184 188 188 186 181 180 188 194 194 194 198 205 211 221 238 248 264 272 237 226 224 224 225 226 230 234 242 248 246 244 247
178 180 177 177 178 180 183 189 192 192 196 198 200 205 207 209 210 217 225 229 228 221 214 211 211 216 219 212 205 202 206 212 215 218 224 229 232 233 228 217 211 206 187 155 133 148 187 190 174 169 167 169 177 180 184 188 189 190 189 185 189 197 200 202 211 224 233 239 248 262 277 286 288 282 260 238 229 229 231 232 240 250 253 253 255
180 181 181 183 189 194 195 201 202 199 201 199 199 201 203 205 208 219 226 230 231 227 221 215 216 221 222 216 211 209 214 218 220 226 231 233 235 234 235 225 213 203 185 160 141 133 138 164 166 163 158 157 165 174 180 186 190 194 196 193 194 201 206 212 223 235 241 246 253 263 278 287 291 295 291 268 243 236 237 238 240 246 254 261 266
183 181 185 192 198 208 211 216 214 212 215 212 211 208 208 205 206 218 222 226 231 230 225 218 218 223 223 219 219 220 221 224 226 231 233 238 240 238 237 227 215 204 187 170 154 142 135 150 159 157 150 148 151 159 170 180 188 195 199 198 199 208 215 220 229 237 240 244 252 259 276 291 293 295 298 294 273 252 246 248 247 247 249 256 264
189 188 191 196 202 211 216 223 226 231 231 227 222 215 216 210 210 220 219 219 227 233 231 226 223 226 228 225 227 230 231 235 238 243 243 245 248 244 240 229 219 210 194 179 167 163 157 154 157 157 152 148 145 146 155 166 179 189 197 201 203 210 218 220 225 236 239 242 252 257 270 288 294 301 304 302 294 274 262 260 261 256 252 253 255
197 202 203 206 209 213 219 225 233 244 244 236 225 217 218 214 214 226 224 219 225 233 234 236 235 235 237 235 237 239 241 245 249 256 254 253 251 243 237 229 221 213 201 187 179 178 177 172 169 169 166 159 156 156 159 164 171 180 190 197 201 208 216 220 222 231 237 242 252 255 261 277 287 300 307 304 299 285 276 271 271 267 263 263 261
200 211 218 223 219 220 226 232 239 249 251 242 223 212 214 215 216 227 233 228 228 233 237 242 244 243 245 246 248 247 248 252 255 260 257 255 252 242 235 229 223 215 206 197 189 186 186 186 187 189 189 185 182 179 179 179 178 179 186 192 196 205 214 219 226 232 236 240 246 250 256 266 275 286 295 299 297 288 282 278 277 276 275 277 275
201 213 227 230 226 227 230 237 244 246 246 237 222 211 206 207 210 220 234 236 236 239 242 245 245 244 242 242 246 246 248 252 255 255 250 249 249 240 231 229 228 219 210 205 198 193 193 195 198 200 201 199 196 193 195 195 187 182 185 189 197 207 214 218 228 235 237 240 246 251 255 260 265 272 279 286 291 290 288 285 284 284 285 289 288
208 218 230 235 234 233 235 243 246 239 231 226 221 216 210 204 203 214 231 239 243 246 246 245 244 243 238 232 230 232 239 244 245 242 239 242 242 233 226 224 228 224 215 211 207 201 198 201 205 207 206 202 199 201 210 209 199 193 187 189 198 208 217 222 229 234 237 240 247 254 256 260 263 267 273 278 283 287 291 292 293 297 298 299 300
218 224 230 236 238 239 239 241 241 233 219 215 217 217 221 218 214 224 234 240 241 241 243 239 237 240 241 238 230 227 232 233 231 233 233 234 232 226 225 223 225 224 218 216 214 210 205 206 210 212 211 210 207 208 216 219 214 205 195 193 201 208 219 227 230 234 236 237 244 252 255 258 262 267 271 274 278 283 288 293 298 303 305 304 304
216 221 223 225 230 233 236 236 231 224 214 211 215 218 231 234 227 225 230 235 233 229 229 225 222 227 237 246 243 234 233 231 226 229 234 236 234 229 227 225 226 225 220 218 219 219 214 209 211 215 215 215 215 212 213 222 224 215 204 202 206 211 223 230 233 237 238 239 244 249 253 257 260 267 270 271 275 280 285 292 297 301 304 304 305
207 211 214 215 220 222 229 235 223 217 217 218 221 226 234 239 229 215 216 223 223 219 219 216 210 210 223 244 250 239 237 239 235 235 238 241 242 239 232 228 230 229 224 222 222 225 224 213 210 215 217 216 213 210 213 222 226 221 213 212 213 215 226 231 236 243 243 243 245 248 255 259 261 264 267 270 274 278 283 289 296 300 302 305 309
201 200 205 208 211 211 216 218 211 210 214 218 222 221 222 223 214 205 202 206 207 208 211 215 217 222 232 242 251 242 239 244 243 243 244 242 244 244 234 229 232 230 230 230 227 228 227 220 214 214 219 224 220 214 216 224 228 227 222 222 222 222 231 235 236 244 247 247 246 247 255 258 259 262 265 269 272 275 280 285 293 297 300 303 309
200 195 198 204 205 203 205 202 201 203 206 211 210 202 203 205 201 197 190 189 197 202 208 222 237 250 266 271 270 256 241 246 248 246 245 245 247 250 240 231 235 233 232 236 234 232 230 228 227 225 227 233 231 224 220 224 230 233 229 228 230 233 239 239 235 239 247 253 252 249 253 257 258 260 261 265 267 271 275 279 286 291 295 299 303
202 198 196 202 208 202 197 193 194 199 199 199 193 184 183 185 185 182 178 182 187 190 202 240 273 289 293 293 287 273 257 252 252 245 240 240 243 250 245 234 236 235 231 239 240 237 234 232 232 236 237 234 235 233 229 227 229 234 231 227 230 235 239 239 236 237 243 253 256 254 258 262 263 262 260 260 262 267 269 272 278 284 289 293 297
203 202 199 203 209 204 197 188 187 192 194 189 181 175 165 159 164 161 159 166 161 143 133 227 285 295 296 293 285 277 269 262 260 253 241 235 230 237 239 230 232 233 229 236 239 236 236 233 228 232 238 237 238 240 237 233 232 233 231 228 230 234 240 242 238 238 243 251 256 258 262 265 266 267 265 261 259 263 266 268 272 277 282 286 290
206 205 203 204 207 205 197 190 187 186 187 184 178 170 145 131 144 146 145 149 143 125 115 113 87 37 38 34 338 288 274 265 263 258 246 239 233 231 234 227 229 233 232 236 241 239 239 238 227 228 237 240 238 238 240 243 244 239 230 229 233 236 241 243 241 240 245 252 257 258 261 265 267 268 268 266 263 262 263 263 268 273 276 279 284
212 208 205 206 207 201 195 195 191 185 182 182 179 166 135 125 137 144 149 151 139 125 115 106 93 79 69 63 53 35 341 287 268 259 248 238 233 233 237 235 233 236 238 241 247 248 245 249 237 227 233 241 238 236 237 241 247 249 240 236 240 243 245 245 243 243 246 252 255 257 258 263 268 269 267 265 266 266 264 263 265 269 273 275 279
216 212 206 207 206 201 199 198 192 187 183 181 178 163 142 140 151 161 166 162 150 135 118 107 96 86 76 66 55 42 18 344 303 276 261 244 232 229 238 245 246 243 244 248 256 257 253 258 262 241 239 247 245 242 242 239 241 245 245 244 247 250 252 252 250 247 248 251 254 255 256 259 265 267 266 266 267 270 269 268 266 267 270 272 275
219 217 210 207 206 204 203 198 193 190 186 183 179 169 158 159 173 186 191 183 174 164 133 111 98 92 85 71 59 47 31 23 8 308 285 268 240 221 233 251 261 257 248 254 265 269 265 265 271 263 254 258 256 254 258 255 247 243 242 248 256 254 251 255 259 255 251 252 254 253 253 256 261 265 269 270 270 271 272 271 270 269 268 269 272
221 219 213 209 208 207 204 198 196 194 191 188 184 179 172 167 176 193 204 198 183 181 162 123 106 95 91 81 66 52 38 42 51 50 31 5 320 260 258 273 289 294 280 268 272 276 273 268 270 272 268 266 263 262 267 271 263 250 245 248 256 264 262 262 266 264 258 253 250 249 250 252 256 261 267 270 271 271 272 272 272 271 271 270 271
220 219 214 211 209 208 206 201 199 198 196 196 190 187 183 174 180 202 219 223 195 192 187 141 122 104 95 94 81 60 46 47 57 65 70 71 68 42 310 291 292 296 297 283 268 270 270 267 269 272 273 273 271 269 273 278 272 260 255 252 255 264 268 270 272 276 276 266 252 244 244 249 255 259 261 264 267 269 270 272 272 272 272 273 274
219 218 215 212 209 208 207 205 203 201 201 202 197 194 190 183 184 203 221 223 208 209 214 178 148 140 113 105 99 74 57 55 63 71 75 80 82 77 68 53 32 347 336 329 280 267 269 270 269 269 271 275 278 277 279 282 279 271 264 262 263 263 263 268 271 275 282 281 271 258 247 246 252 257 261 263 264 265 267 269 271 271 271 272 275
219 219 217 213 210 208 209 207 206 204 204 206 204 199 197 193 191 204 219 219 214 220 225 212 189 191 184 138 124 99 66 65 74 83 86 87 87 84 80 70 63 59 47 34 16 331 293 283 275 269 267 268 274 278 278 279 279 277 271 268 271 268 266 268 270 271 275 279 280 276 267 260 255 251 252 260 265 267 268 268 269 270 270 270 270
218 218 218 215 211 209 210 210 210 208 207 209 208 204 201 199 200 206 217 220 217 222 228 225 222 223 225 220 189 163 120 86 86 97 101 98 97 92 83 70 56 46 35 21 8 340 312 297 283 271 262 259 262 266 270 274 275 276 275 273 273 273 278 280 280 283 282 279 279 279 278 275 270 259 250 253 261 265 267 267 268 268 267 267 267
217 217 218 217 214 212 212 212 212 212 212 213 211 209 206 204 205 208 216 223 220 224 231 228 228 235 239 245 241 222 204 195 138 117 116 109 101 94 79 61 42 27 9 351 336 313 294 282 276 271 263 259 258 257 259 263 266 269 270 273 274 274 277 280 283 289 291 289 284 282 280 279 280 273 263 260 262 263 262 261 264 267 266 266 266